| time (UTC) | temp C | wind direction | speed KPH | gust KPH | rain 1hr cm | rain 24hr cm | rain mn cm | humidity % | barometer mb |
| 20260507035506 | 7 | 36 | 3.2 | 12.9 | 0.20 | 0.97 | 0.94 | 90 | 1009.0 |
| 20260507035022 | 7 | 21 | 1.6 | 12.9 | 0.25 | 0.97 | 0.94 | 90 | 1009.1 |
| 20260507034540 | 7 | 13 | 3.2 | 11.3 | 0.28 | 0.97 | 0.94 | 90 | 1009.1 |
| 20260507034058 | 7 | 40 | 3.2 | 9.7 | 0.33 | 0.97 | 0.94 | 90 | 1009.1 |
| 20260507033526 | 7 | 11 | 1.6 | 9.7 | 0.36 | 0.94 | 0.91 | 90 | 1009.1 |
| 20260507033046 | 7 | 355 | 1.6 | 6.4 | 0.41 | 0.94 | 0.91 | 90 | 1009.1 |
| 20260507032510 | 7 | 55 | 1.6 | 6.4 | 0.46 | 0.94 | 0.91 | 90 | 1009.1 |
| 20260507032029 | 7 | 38 | 1.6 | 9.7 | 0.51 | 0.94 | 0.91 | 90 | 1009.1 |
| 20260507031550 | 7 | 360 | 0.0 | 9.7 | 0.53 | 0.94 | 0.91 | 90 | 1008.9 |
| 20260507031007 | 7 | 23 | 1.6 | 6.4 | 0.53 | 0.89 | 0.89 | 90 | 1009.0 |
| 20260507030527 | 7 | 26 | 0.0 | 14.5 | 0.53 | 0.86 | 0.84 | 90 | 1009.0 |
| 20260507030045 | 7 | 19 | 4.8 | 14.5 | 0.53 | 0.79 | 0.79 | 89 | 1008.9 |
| 20260507025506 | 7 | 40 | 4.8 | 11.3 | 0.51 | 0.71 | 0.71 | 89 | 1008.8 |
| 20260507025032 | 7 | 57 | 4.8 | 9.7 | 0.51 | 0.71 | 0.69 | 89 | 1008.9 |
| 20260507024552 | 7 | 351 | 3.2 | 8.0 | 0.51 | 0.69 | 0.66 | 89 | 1009.0 |
| 20260507024011 | 7 | 30 | 1.6 | 14.5 | 0.51 | 0.64 | 0.61 | 89 | 1009.1 |
| 20260507023525 | 7 | 342 | 6.4 | 14.5 | 0.48 | 0.58 | 0.56 | 89 | 1009.2 |
| 20260507023054 | 7 | 323 | 3.2 | 14.5 | 0.46 | 0.53 | 0.51 | 89 | 1009.2 |
| 20260507022513 | 7 | 348 | 0.0 | 12.9 | 0.43 | 0.48 | 0.46 | 89 | 1009.1 |
| 20260507022041 | 7 | 331 | 3.2 | 12.9 | 0.38 | 0.43 | 0.43 | 89 | 1009.1 |
| 20260507021507 | 7 | 26 | 0.0 | 14.5 | 0.36 | 0.41 | 0.38 | 89 | 1009.0 |
| 20260507021023 | 7 | 5 | 4.8 | 14.5 | 0.33 | 0.36 | 0.33 | 89 | 1009.1 |
| 20260507020542 | 7 | 331 | 3.2 | 12.9 | 0.28 | 0.30 | 0.28 | 88 | 1009.0 |
| 20260507020009 | 7 | 5 | 4.8 | 12.9 | 0.23 | 0.25 | 0.23 | 88 | 1009.0 |
| 20260507015530 | 7 | 319 | 3.2 | 9.7 | 0.20 | 0.53 | 0.20 | 88 | 1009.0 |
| 20260507015048 | 8 | 348 | 3.2 | 8.0 | 0.18 | 0.51 | 0.18 | 88 | 1008.9 |
| 20260507014515 | 8 | 47 | 3.2 | 9.7 | 0.15 | 0.48 | 0.15 | 88 | 1008.8 |
| 20260507014035 | 8 | 28 | 6.4 | 11.3 | 0.13 | 0.46 | 0.13 | 88 | 1008.7 |
| 20260507013555 | 8 | 306 | 3.2 | 9.7 | 0.08 | 0.43 | 0.08 | 88 | 1008.6 |
| 20260507013037 | 8 | 321 | 1.6 | 8.0 | 0.05 | 0.41 | 0.05 | 88 | 1008.7 |
| 20260507012541 | 8 | 18 | 0.0 | 8.0 | 0.05 | 0.38 | 0.05 | 87 | 1008.6 |
| 20260507012102 | 8 | 22 | 3.2 | 8.0 | 0.05 | 0.38 | 0.05 | 87 | 1008.6 |
| 20260507011531 | 8 | 22 | 3.2 | 8.0 | 0.03 | 0.36 | 0.03 | 87 | 1008.6 |
| 20260507011036 | 8 | 23 | 3.2 | 14.5 | 0.00 | 0.33 | 0.00 | 86 | 1008.5 |
| 20260507010556 | 8 | 304 | 3.2 | 14.5 | 0.00 | 0.33 | 0.00 | 86 | 1008.5 |
| 20260507010011 | 8 | 22 | 0.0 | 14.5 | 0.00 | 0.33 | 0.00 | 86 | 1008.4 |
| 20260507005540 | 8 | 21 | 3.2 | 14.5 | 0.00 | 1.02 | 0.00 | 86 | 1008.3 |
| 20260507005057 | 8 | 340 | 4.8 | 11.3 | 0.00 | 1.02 | 0.00 | 85 | 1008.3 |
| 20260507004517 | 8 | 346 | 3.2 | 9.7 | 0.00 | 1.02 | 0.00 | 85 | 1008.3 |
| 20260507004032 | 8 | 13 | 1.6 | 12.9 | 0.00 | 1.02 | 0.00 | 85 | 1008.2 |
| 20260507003554 | 8 | 348 | 4.8 | 12.9 | 0.00 | 1.02 | 0.00 | 85 | 1008.1 |
| 20260507003010 | 9 | 355 | 1.6 | 8.0 | 0.00 | 1.02 | 0.00 | 85 | 1008.2 |
| 20260507002539 | 9 | 19 | 3.2 | 9.7 | 0.00 | 1.02 | 0.00 | 85 | 1008.2 |
| 20260507002100 | 9 | 360 | 1.6 | 9.7 | 0.00 | 1.02 | 0.00 | 85 | 1008.2 |
| 20260507001525 | 8 | 337 | 1.6 | 8.0 | 0.00 | 1.02 | 0.00 | 85 | 1008.3 |
| 20260507001047 | 9 | 24 | 3.2 | 8.0 | 0.00 | 1.02 | 0.00 | 85 | 1008.4 |
| 20260507000516 | 9 | 43 | 3.2 | 9.7 | 0.00 | 1.02 | 0.00 | 85 | 1008.4 |
| 20260507000031 | 9 | 5 | 4.8 | 9.7 | 0.00 | 1.02 | 0.00 | 85 | 1008.3 |
| 20260506235547 | 9 | 70 | 1.6 | 9.7 | 0.00 | 1.09 | 0.00 | 85 | 1008.3 |
| 20260506235005 | 9 | 70 | 4.8 | 11.3 | 0.00 | 1.09 | 0.00 | 85 | 1008.0 |
| 20260506234529 | 9 | 64 | 3.2 | 11.3 | 0.00 | 1.09 | 0.00 | 84 | 1008.0 |
| 20260506234052 | 9 | 12 | 0.0 | 11.3 | 0.00 | 1.09 | 0.00 | 84 | 1007.9 |
| 20260506233506 | 9 | 325 | 3.2 | 14.5 | 0.00 | 1.09 | 0.00 | 84 | 1007.8 |
| 20260506233026 | 9 | 16 | 3.2 | 14.5 | 0.00 | 1.09 | 0.00 | 84 | 1007.9 |
| 20260506232545 | 9 | 46 | 1.6 | 12.9 | 0.00 | 1.09 | 0.00 | 84 | 1008.1 |
| 20260506232002 | 9 | 30 | 3.2 | 12.9 | 0.00 | 1.09 | 0.00 | 84 | 1008.1 |
| 20260506231530 | 9 | 11 | 3.2 | 9.7 | 0.00 | 1.09 | 0.00 | 84 | 1008.1 |
| 20260506231049 | 9 | 23 | 1.6 | 8.0 | 0.00 | 1.09 | 0.00 | 84 | 1008.2 |
| 20260506230505 | 9 | 5 | 1.6 | 8.0 | 0.00 | 1.09 | 0.00 | 84 | 1008.1 |
| 20260506230025 | 9 | 26 | 1.6 | 9.7 | 0.00 | 1.09 | 0.00 | 84 | 1008.1 |
| 20260506225545 | 10 | 11 | 3.2 | 9.7 | 0.00 | 1.22 | 0.00 | 84 | 1008.0 |
| 20260506225002 | 10 | 24 | 1.6 | 8.0 | 0.00 | 1.22 | 0.00 | 84 | 1007.9 |
| 20260506224533 | 10 | 24 | 1.6 | 12.9 | 0.00 | 1.22 | 0.00 | 84 | 1007.9 |
| 20260506224052 | 10 | 31 | 3.2 | 12.9 | 0.00 | 1.22 | 0.00 | 84 | 1007.9 |
| 20260506223520 | 10 | 26 | 3.2 | 14.5 | 0.00 | 1.22 | 0.00 | 84 | 1007.8 |
| 20260506223047 | 10 | 46 | 3.2 | 14.5 | 0.00 | 1.22 | 0.00 | 84 | 1007.8 |
| 20260506222506 | 10 | 61 | 4.8 | 14.5 | 0.00 | 1.22 | 0.00 | 83 | 1007.8 |
| 20260506222024 | 10 | 67 | 6.4 | 14.5 | 0.00 | 1.22 | 0.00 | 83 | 1007.7 |
| 20260506221552 | 10 | 27 | 4.8 | 11.3 | 0.00 | 1.22 | 0.00 | 83 | 1007.9 |
| 20260506221012 | 10 | 60 | 4.8 | 14.5 | 0.00 | 1.22 | 0.00 | 83 | 1007.8 |
| 20260506220538 | 10 | 40 | 4.8 | 9.7 | 0.00 | 1.22 | 0.00 | 83 | 1007.8 |
| 20260506220057 | 10 | 38 | 4.8 | 14.5 | 0.00 | 1.22 | 0.00 | 83 | 1007.8 |
| 20260506215522 | 10 | 12 | 4.8 | 14.5 | 0.00 | 1.22 | 1.22 | 83 | 1007.8 |
| 20260506215039 | 10 | 49 | 6.4 | 16.1 | 0.00 | 1.22 | 1.22 | 83 | 1007.8 |
| 20260506214609 | 10 | 52 | 4.8 | 14.5 | 0.00 | 1.22 | 1.22 | 82 | 1007.6 |
| 20260506214023 | 10 | 46 | 3.2 | 12.9 | 0.00 | 1.22 | 1.22 | 83 | 1007.6 |
| 20260506213545 | 10 | 31 | 3.2 | 12.9 | 0.00 | 1.22 | 1.22 | 83 | 1007.7 |
| 20260506213012 | 10 | 80 | 1.6 | 12.9 | 0.00 | 1.22 | 1.22 | 83 | 1007.7 |
| 20260506212529 | 10 | 53 | 1.6 | 12.9 | 0.00 | 1.22 | 1.22 | 82 | 1007.6 |
| 20260506212051 | 10 | 30 | 3.2 | 12.9 | 0.00 | 1.22 | 1.22 | 82 | 1007.5 |
| 20260506211506 | 10 | 5 | 4.8 | 12.9 | 0.00 | 1.22 | 1.22 | 82 | 1007.5 |
| 20260506211024 | 10 | 44 | 3.2 | 12.9 | 0.00 | 1.22 | 1.22 | 82 | 1007.5 |
| 20260506210543 | 10 | 30 | 3.2 | 14.5 | 0.00 | 1.22 | 1.22 | 82 | 1007.6 |
| 20260506210128 | 11 | 60 | 4.8 | 14.5 | 0.00 | 1.22 | 1.22 | 81 | 1007.5 |
| 20260506205517 | 11 | 360 | 4.8 | 12.9 | 0.00 | 1.22 | 1.22 | 81 | 1007.6 |
| 20260506205036 | 11 | 71 | 4.8 | 12.9 | 0.00 | 1.22 | 1.22 | 81 | 1007.5 |
| 20260506204556 | 11 | 336 | 3.2 | 14.5 | 0.00 | 1.22 | 1.22 | 81 | 1007.3 |
| 20260506204013 | 11 | 350 | 3.2 | 14.5 | 0.00 | 1.22 | 1.22 | 81 | 1007.4 |
| 20260506203529 | 11 | 43 | 3.2 | 14.5 | 0.00 | 1.22 | 1.22 | 81 | 1007.3 |
| 20260506203050 | 11 | 31 | 1.6 | 14.5 | 0.00 | 1.22 | 1.22 | 81 | 1007.2 |
| 20260506202506 | 11 | 349 | 4.8 | 9.7 | 0.00 | 1.22 | 1.22 | 82 | 1007.3 |
| 20260506202024 | 11 | 360 | 3.2 | 14.5 | 0.00 | 1.22 | 1.22 | 81 | 1007.1 |
| 20260506201543 | 11 | 49 | 3.2 | 11.3 | 0.00 | 1.22 | 1.22 | 81 | 1007.1 |
| 20260506201010 | 11 | 22 | 1.6 | 9.7 | 0.00 | 1.22 | 1.22 | 81 | 1007.1 |
| 20260506200525 | 11 | 10 | 1.6 | 9.7 | 0.00 | 1.22 | 1.22 | 81 | 1007.2 |
| 20260506200117 | 11 | 71 | 1.6 | 8.0 | 0.00 | 1.22 | 1.22 | 81 | 1007.2 |
| 20260506195501 | 11 | 5 | 1.6 | 8.0 | 0.00 | 1.22 | 1.22 | 81 | 1007.2 |
| 20260506195030 | 11 | 346 | 0.0 | 6.4 | 0.00 | 1.22 | 1.22 | 81 | 1007.2 |
| 20260506194550 | 11 | 344 | 1.6 | 6.4 | 0.00 | 1.22 | 1.22 | 81 | 1007.1 |
| 20260506194016 | 11 | 5 | 1.6 | 9.7 | 0.00 | 1.22 | 1.22 | 80 | 1007.1 |
| 20260506193538 | 11 | 360 | 0.0 | 12.9 | 0.00 | 1.22 | 1.22 | 80 | 1007.0 |
| 20260506193054 | 11 | 28 | 3.2 | 14.5 | 0.00 | 1.22 | 1.22 | 80 | 1007.0 |
| 20260506192513 | 12 | 342 | 1.6 | 14.5 | 0.00 | 1.22 | 1.22 | 79 | 1006.9 |
| 20260506192039 | 12 | 349 | 6.4 | 14.5 | 0.00 | 1.22 | 1.22 | 79 | 1007.0 |
| 20260506191600 | 12 | 323 | 4.8 | 16.1 | 0.00 | 1.22 | 1.22 | 79 | 1006.9 |
| 20260506191024 | 12 | 13 | 3.2 | 16.1 | 0.00 | 1.22 | 1.22 | 79 | 1006.9 |
| 20260506190542 | 12 | 327 | 3.2 | 16.1 | 0.00 | 1.22 | 1.22 | 79 | 1006.9 |
| 20260506190008 | 12 | 322 | 3.2 | 9.7 | 0.00 | 1.22 | 1.22 | 79 | 1006.9 |
| 20260506185531 | 12 | 5 | 1.6 | 9.7 | 0.00 | 1.22 | 1.22 | 78 | 1006.8 |
| 20260506185051 | 12 | 355 | 0.0 | 16.1 | 0.00 | 1.22 | 1.22 | 78 | 1006.9 |
| 20260506184518 | 12 | 320 | 3.2 | 19.3 | 0.00 | 1.22 | 1.22 | 78 | 1006.7 |
| 20260506184036 | 12 | 38 | 3.2 | 19.3 | 0.00 | 1.22 | 1.22 | 77 | 1006.6 |
| 20260506183554 | 12 | 327 | 3.2 | 16.1 | 0.00 | 1.22 | 1.22 | 77 | 1006.5 |
| 20260506183009 | 13 | 342 | 6.4 | 16.1 | 0.00 | 1.22 | 1.22 | 77 | 1006.4 |
| 20260506182532 | 13 | 9 | 3.2 | 17.7 | 0.00 | 1.22 | 1.22 | 76 | 1006.5 |
| 20260506182050 | 13 | 339 | 6.4 | 17.7 | 0.00 | 1.22 | 1.22 | 76 | 1006.5 |
| 20260506181519 | 13 | 34 | 4.8 | 16.1 | 0.00 | 1.22 | 1.22 | 76 | 1006.4 |
| 20260506181035 | 13 | 18 | 3.2 | 14.5 | 0.00 | 1.22 | 1.22 | 75 | 1006.3 |
| 20260506180554 | 13 | 360 | 3.2 | 12.9 | 0.00 | 1.22 | 1.22 | 75 | 1006.3 |
| 20260506180016 | 13 | 11 | 6.4 | 14.5 | 0.00 | 1.22 | 1.22 | 75 | 1006.2 |
| 20260506175530 | 14 | 329 | 3.2 | 14.5 | 0.00 | 1.22 | 1.22 | 75 | 1006.2 |
| 20260506175048 | 14 | 340 | 3.2 | 12.9 | 0.00 | 1.22 | 1.22 | 75 | 1006.1 |
| 20260506174503 | 14 | 336 | 4.8 | 12.9 | 0.00 | 1.22 | 1.22 | 75 | 1006.2 |
| 20260506174022 | 14 | 312 | 3.2 | 20.9 | 0.00 | 1.22 | 1.22 | 75 | 1006.3 |
| 20260506173550 | 14 | 11 | 6.4 | 24.1 | 0.00 | 1.22 | 1.22 | 74 | 1006.2 |
| 20260506173007 | 14 | 344 | 11.3 | 24.1 | 0.00 | 1.22 | 1.22 | 74 | 1006.1 |
| 20260506172534 | 15 | 310 | 4.8 | 20.9 | 0.00 | 1.22 | 1.22 | 74 | 1006.1 |
| 20260506172054 | 15 | 360 | 9.7 | 20.9 | 0.00 | 1.22 | 1.22 | 74 | 1006.1 |
| 20260506171535 | 15 | 344 | 6.4 | 20.9 | 0.00 | 1.22 | 1.22 | 74 | 1006.1 |
| 20260506171034 | 15 | 337 | 11.3 | 17.7 | 0.00 | 1.22 | 1.22 | 74 | 1006.0 |
| 20260506170552 | 15 | 346 | 6.4 | 16.1 | 0.00 | 1.22 | 1.22 | 74 | 1006.0 |
| 20260506170019 | 15 | 345 | 4.8 | 14.5 | 0.00 | 1.22 | 1.22 | 74 | 1006.0 |
| 20260506165536 | 15 | 11 | 1.6 | 19.3 | 0.00 | 1.22 | 1.22 | 74 | 1006.0 |
| 20260506165056 | 15 | 329 | 9.7 | 19.3 | 0.00 | 1.22 | 1.22 | 74 | 1005.9 |
| 20260506164513 | 15 | 360 | 4.8 | 17.7 | 0.00 | 1.22 | 1.22 | 74 | 1006.0 |
| 20260506164041 | 15 | 336 | 8.0 | 19.3 | 0.00 | 1.22 | 1.22 | 74 | 1006.0 |
| 20260506163600 | 15 | 346 | 9.7 | 19.3 | 0.00 | 1.22 | 1.22 | 73 | 1005.9 |
| 20260506163027 | 15 | 340 | 8.0 | 22.5 | 0.00 | 1.22 | 1.22 | 73 | 1006.0 |
| 20260506162537 | 16 | 351 | 11.3 | 22.5 | 0.00 | 1.22 | 1.22 | 73 | 1005.9 |
| 20260506162055 | 16 | 331 | 8.0 | 17.7 | 0.00 | 1.22 | 1.22 | 72 | 1005.8 |
| 20260506161524 | 16 | 350 | 8.0 | 17.7 | 0.00 | 1.22 | 1.22 | 72 | 1005.7 |
| 20260506161034 | 16 | 328 | 4.8 | 27.4 | 0.00 | 1.22 | 1.22 | 72 | 1005.8 |
| 20260506160545 | 16 | 15 | 9.7 | 27.4 | 0.00 | 1.22 | 1.22 | 72 | 1005.8 |
| 20260506160109 | 17 | 276 | 8.0 | 19.3 | 0.00 | 1.22 | 1.22 | 71 | 1005.9 |
| 20260506155526 | 17 | 355 | 4.8 | 17.7 | 0.00 | 1.22 | 1.22 | 70 | 1005.9 |
| 20260506155043 | 17 | 360 | 8.0 | 20.9 | 0.00 | 1.22 | 1.22 | 69 | 1005.8 |
| 20260506154510 | 17 | 338 | 11.3 | 20.9 | 0.00 | 1.22 | 1.22 | 68 | 1005.9 |
| 20260506154029 | 18 | 302 | 4.8 | 16.1 | 0.00 | 1.22 | 1.22 | 68 | 1005.9 |
| 20260506153548 | 18 | 338 | 6.4 | 19.3 | 0.00 | 1.22 | 1.22 | 67 | 1005.8 |
| 20260506153005 | 18 | 360 | 8.0 | 16.1 | 0.00 | 1.22 | 1.22 | 67 | 1005.8 |
| 20260506152530 | 18 | 355 | 3.2 | 16.1 | 0.00 | 1.22 | 1.22 | 67 | 1005.8 |
| 20260506152049 | 18 | 333 | 6.4 | 16.1 | 0.00 | 1.22 | 1.22 | 66 | 1005.8 |
| 20260506151506 | 18 | 355 | 8.0 | 16.1 | 0.00 | 1.22 | 1.22 | 65 | 1005.8 |
| 20260506151025 | 18 | 287 | 3.2 | 17.7 | 0.00 | 1.22 | 1.22 | 65 | 1005.8 |
| 20260506150545 | 19 | 5 | 8.0 | 17.7 | 0.00 | 1.22 | 1.22 | 66 | 1005.7 |
| 20260506150005 | 19 | 338 | 6.4 | 16.1 | 0.00 | 1.22 | 1.22 | 66 | 1005.7 |
| 20260506145529 | 18 | 345 | 3.2 | 14.5 | 0.00 | 1.22 | 1.22 | 66 | 1005.8 |
| 20260506145049 | 18 | 5 | 3.2 | 14.5 | 0.00 | 1.22 | 1.22 | 65 | 1005.8 |
| 20260506144507 | 18 | 330 | 4.8 | 19.3 | 0.00 | 1.22 | 1.22 | 64 | 1005.8 |
| 20260506144028 | 19 | 263 | 8.0 | 19.3 | 0.00 | 1.22 | 1.22 | 63 | 1005.8 |
| 20260506143546 | 19 | 286 | 6.4 | 19.3 | 0.00 | 1.22 | 1.22 | 63 | 1005.8 |
| 20260506143003 | 19 | 340 | 4.8 | 19.3 | 0.00 | 1.22 | 1.22 | 63 | 1005.7 |
| 20260506142521 | 19 | 308 | 6.4 | 19.3 | 0.00 | 1.22 | 1.22 | 63 | 1005.7 |
| 20260506142041 | 19 | 284 | 6.4 | 19.3 | 0.00 | 1.22 | 1.22 | 63 | 1005.6 |
| 20260506141600 | 20 | 344 | 6.4 | 14.5 | 0.00 | 1.22 | 1.22 | 63 | 1005.7 |
| 20260506141022 | 20 | 333 | 1.6 | 20.9 | 0.00 | 1.22 | 1.22 | 62 | 1005.6 |
| 20260506140541 | 20 | 240 | 11.3 | 19.3 | 0.00 | 1.22 | 1.22 | 61 | 1005.7 |
| 20260506140007 | 20 | 9 | 8.0 | 22.5 | 0.00 | 1.22 | 1.22 | 60 | 1005.7 |
| 20260506135530 | 20 | 234 | 11.3 | 22.5 | 0.00 | 1.22 | 1.22 | 61 | 1005.6 |
| 20260506135044 | 19 | 231 | 9.7 | 22.5 | 0.00 | 1.22 | 1.22 | 62 | 1005.7 |
| 20260506134503 | 19 | 256 | 9.7 | 24.1 | 0.00 | 1.22 | 1.22 | 61 | 1005.7 |
| 20260506134030 | 19 | 271 | 16.1 | 24.1 | 0.00 | 1.22 | 1.22 | 62 | 1005.8 |
| 20260506133548 | 20 | 271 | 11.3 | 19.3 | 0.00 | 1.22 | 1.22 | 62 | 1005.8 |
| 20260506133002 | 20 | 258 | 11.3 | 22.5 | 0.00 | 1.22 | 1.22 | 60 | 1005.7 |
| 20260506132520 | 20 | 244 | 11.3 | 19.3 | 0.00 | 1.22 | 1.22 | 61 | 1005.7 |
| 20260506132048 | 20 | 207 | 4.8 | 19.3 | 0.00 | 1.22 | 1.22 | 62 | 1005.7 |
| 20260506131505 | 20 | 316 | 11.3 | 20.9 | 0.00 | 1.22 | 1.22 | 63 | 1005.7 |
| 20260506131035 | 20 | 240 | 9.7 | 20.9 | 0.00 | 1.22 | 1.22 | 62 | 1005.8 |
| 20260506130552 | 20 | 248 | 11.3 | 24.1 | 0.00 | 1.22 | 1.22 | 60 | 1005.7 |
| 20260506130019 | 20 | 299 | 11.3 | 24.1 | 0.00 | 1.22 | 1.22 | 61 | 1005.7 |
| 20260506125536 | 20 | 263 | 11.3 | 27.4 | 0.00 | 1.22 | 1.22 | 62 | 1005.7 |
| 20260506125055 | 20 | 297 | 17.7 | 27.4 | 0.00 | 1.22 | 1.22 | 61 | 1005.6 |
| 20260506124516 | 19 | 298 | 12.9 | 24.1 | 0.00 | 1.22 | 1.22 | 58 | 1005.7 |
| 20260506124041 | 19 | 206 | 11.3 | 27.4 | 0.00 | 1.22 | 1.22 | 59 | 1005.6 |
| 20260506123601 | 19 | 257 | 16.1 | 27.4 | 0.00 | 1.22 | 1.22 | 58 | 1005.6 |
| 20260506123013 | 19 | 267 | 14.5 | 24.1 | 0.00 | 1.22 | 1.22 | 59 | 1005.7 |
| 20260506122539 | 19 | 229 | 12.9 | 22.5 | 0.00 | 1.22 | 1.22 | 60 | 1005.6 |
| 20260506122057 | 19 | 187 | 9.7 | 27.4 | 0.00 | 1.22 | 1.22 | 59 | 1005.6 |
| 20260506121522 | 19 | 244 | 12.9 | 27.4 | 0.00 | 1.22 | 1.22 | 60 | 1005.6 |
| 20260506121042 | 18 | 269 | 12.9 | 25.7 | 0.00 | 1.22 | 1.22 | 61 | 1005.6 |
| 20260506120506 | 18 | 259 | 17.7 | 27.4 | 0.00 | 1.22 | 1.22 | 61 | 1005.5 |
| 20260506120025 | 18 | 271 | 17.7 | 27.4 | 0.03 | 1.22 | 1.22 | 62 | 1005.4 |
| 20260506115544 | 18 | 261 | 17.7 | 27.4 | 0.03 | 1.22 | 1.22 | 62 | 1005.3 |
| 20260506115009 | 18 | 277 | 8.0 | 30.6 | 0.03 | 1.22 | 1.22 | 64 | 1005.3 |
| 20260506114546 | 18 | 270 | 11.3 | 29.0 | 0.03 | 1.22 | 1.22 | 64 | 1005.4 |
| 20260506114058 | 18 | 263 | 17.7 | 29.0 | 0.03 | 1.22 | 1.22 | 64 | 1005.6 |
| 20260506113515 | 17 | 236 | 16.1 | 29.0 | 0.03 | 1.22 | 1.22 | 69 | 1005.5 |
| 20260506113037 | 17 | 267 | 16.1 | 25.7 | 0.03 | 1.22 | 1.22 | 69 | 1005.4 |
| 20260506112555 | 16 | 210 | 14.5 | 22.5 | 0.03 | 1.22 | 1.22 | 71 | 1005.6 |
| 20260506112015 | 16 | 250 | 8.0 | 17.7 | 0.03 | 1.22 | 1.22 | 74 | 1005.5 |
| 20260506111542 | 16 | 227 | 9.7 | 14.5 | 0.03 | 1.22 | 1.22 | 74 | 1005.4 |
| 20260506111059 | 16 | 231 | 8.0 | 17.7 | 0.03 | 1.22 | 1.22 | 75 | 1005.5 |
| 20260506110523 | 16 | 234 | 9.7 | 17.7 | 0.03 | 1.22 | 1.22 | 75 | 1005.4 |
| 20260506110043 | 16 | 235 | 9.7 | 25.7 | 0.00 | 1.19 | 1.19 | 73 | 1005.5 |
| 20260506105509 | 16 | 217 | 12.9 | 25.7 | 0.00 | 1.19 | 1.19 | 71 | 1005.4 |
| 20260506105028 | 16 | 237 | 9.7 | 19.3 | 0.00 | 1.19 | 1.19 | 71 | 1005.5 |
| 20260506104547 | 16 | 271 | 9.7 | 22.5 | 0.00 | 1.19 | 1.19 | 72 | 1005.4 |
| 20260506104004 | 16 | 263 | 12.9 | 22.5 | 0.00 | 1.19 | 1.19 | 71 | 1005.5 |
| 20260506103535 | 16 | 265 | 14.5 | 24.1 | 0.00 | 1.19 | 1.19 | 71 | 1005.4 |
| 20260506103051 | 16 | 290 | 9.7 | 24.1 | 0.00 | 1.19 | 1.19 | 72 | 1005.2 |
| 20260506102509 | 16 | 238 | 8.0 | 17.7 | 0.00 | 1.19 | 1.19 | 72 | 1005.3 |
| 20260506102028 | 16 | 208 | 9.7 | 24.1 | 0.00 | 1.19 | 1.19 | 71 | 1005.2 |
| 20260506101548 | 16 | 265 | 14.5 | 24.1 | 0.00 | 1.19 | 1.19 | 72 | 1005.3 |
| 20260506101004 | 16 | 257 | 9.7 | 20.9 | 0.00 | 1.19 | 1.19 | 72 | 1005.4 |
| 20260506100530 | 16 | 225 | 8.0 | 20.9 | 0.00 | 1.19 | 1.19 | 73 | 1005.2 |
| 20260506100050 | 16 | 215 | 9.7 | 19.3 | 0.00 | 1.19 | 1.19 | 72 | 1005.2 |
| 20260506095516 | 16 | 223 | 8.0 | 16.1 | 0.00 | 1.19 | 1.19 | 72 | 1005.1 |
| 20260506095040 | 16 | 254 | 8.0 | 27.4 | 0.00 | 1.19 | 1.19 | 72 | 1005.1 |
| 20260506094556 | 16 | 263 | 12.9 | 27.4 | 0.00 | 1.19 | 1.19 | 70 | 1005.0 |
| 20260506094011 | 16 | 277 | 9.7 | 19.3 | 0.00 | 1.19 | 1.19 | 70 | 1005.0 |
| 20260506093532 | 17 | 292 | 12.9 | 19.3 | 0.00 | 1.19 | 1.19 | 70 | 1004.9 |
| 20260506093055 | 17 | 246 | 9.7 | 19.3 | 0.00 | 1.19 | 1.19 | 70 | 1005.0 |
| 20260506092517 | 17 | 239 | 6.4 | 24.1 | 0.00 | 1.19 | 1.19 | 72 | 1004.9 |
| 20260506092031 | 16 | 229 | 8.0 | 24.1 | 0.00 | 1.19 | 1.19 | 73 | 1004.8 |
| 20260506091551 | 16 | 250 | 9.7 | 22.5 | 0.00 | 1.19 | 1.19 | 72 | 1004.7 |
| 20260506091006 | 16 | 241 | 9.7 | 19.3 | 0.00 | 1.19 | 1.19 | 74 | 1004.7 |
| 20260506090534 | 16 | 269 | 12.9 | 25.7 | 0.00 | 1.19 | 1.19 | 73 | 1004.7 |
| 20260506090053 | 16 | 240 | 6.4 | 25.7 | 0.00 | 1.19 | 1.19 | 73 | 1004.7 |
| 20260506085507 | 16 | 256 | 12.9 | 24.1 | 0.00 | 1.19 | 1.19 | 72 | 1004.6 |
| 20260506085027 | 16 | 250 | 11.3 | 24.1 | 0.00 | 1.19 | 1.19 | 74 | 1004.6 |
| 20260506084543 | 16 | 229 | 12.9 | 22.5 | 0.00 | 1.19 | 1.19 | 74 | 1004.6 |
| 20260506084009 | 15 | 272 | 9.7 | 22.5 | 0.00 | 1.19 | 1.19 | 76 | 1004.4 |
| 20260506083530 | 15 | 225 | 11.3 | 19.3 | 0.00 | 1.19 | 1.19 | 76 | 1004.4 |
| 20260506083107 | 15 | 224 | 3.2 | 12.9 | 0.00 | 1.19 | 1.19 | 78 | 1004.4 |
| 20260506082504 | 15 | 246 | 6.4 | 14.5 | 0.00 | 1.19 | 1.19 | 77 | 1004.4 |
| 20260506082035 | 15 | 199 | 4.8 | 19.3 | 0.00 | 1.19 | 1.19 | 77 | 1004.4 |
| 20260506081552 | 15 | 256 | 8.0 | 19.3 | 0.00 | 1.19 | 1.19 | 79 | 1004.3 |
| 20260506081016 | 15 | 228 | 9.7 | 19.3 | 0.00 | 1.19 | 1.19 | 80 | 1004.4 |
| 20260506080535 | 15 | 207 | 6.4 | 24.1 | 0.00 | 1.19 | 1.19 | 81 | 1004.3 |
| 20260506073052 | 13 | 275 | 4.8 | 12.9 | 0.00 | 1.19 | 1.19 | 87 | 1004.6 |
| 20260506072509 | 13 | 227 | 4.8 | 17.7 | 0.00 | 1.19 | 1.19 | 88 | 1004.5 |
| 20260506072039 | 13 | 207 | 8.0 | 17.7 | 0.00 | 1.19 | 1.19 | 88 | 1004.6 |
| 20260506071558 | 13 | 185 | 3.2 | 14.5 | 0.00 | 1.19 | 1.19 | 89 | 1004.5 |
| 20260506071014 | 13 | 165 | 4.8 | 11.3 | 0.00 | 1.19 | 1.19 | 90 | 1004.4 |
| 20260506070536 | 13 | 168 | 1.6 | 9.7 | 0.00 | 1.19 | 1.19 | 90 | 1004.5 |
| 20260506070105 | 13 | 204 | 3.2 | 9.7 | 0.00 | 1.19 | 1.19 | 90 | 1004.6 |
| 20260506062507 | 11 | 144 | 3.2 | 8.0 | 0.00 | 1.19 | 1.19 | 91 | 1004.4 |
| 20260506062036 | 11 | 122 | 1.6 | 8.0 | 0.00 | 1.19 | 1.19 | 91 | 1004.5 |
| 20260506061556 | 11 | 149 | 3.2 | 8.0 | 0.00 | 1.19 | 1.19 | 91 | 1004.6 |
| 20260506061014 | 11 | 179 | 4.8 | 11.3 | 0.00 | 1.19 | 1.19 | 91 | 1004.6 |
| 20260506060535 | 11 | 118 | 4.8 | 11.3 | 0.00 | 1.19 | 1.19 | 91 | 1004.6 |
| 20260506051031 | 11 | 56 | 0.0 | 6.4 | 0.00 | 1.19 | 1.19 | 91 | 1004.6 |
| 20260506050542 | 11 | 147 | 0.0 | 6.4 | 0.00 | 1.19 | 1.19 | 91 | 1004.6 |
| 20260506050105 | 11 | 142 | 3.2 | 6.4 | 0.00 | 1.19 | 1.19 | 91 | 1004.7 |
| 20260506045030 | 11 | 110 | 3.2 | 9.7 | 0.00 | 1.19 | 1.19 | 91 | 1004.7 |
| 20260506044549 | 11 | 62 | 1.6 | 11.3 | 0.00 | 1.19 | 1.19 | 91 | 1004.7 |
| 20260506044010 | 11 | 91 | 4.8 | 11.3 | 0.00 | 1.19 | 1.19 | 91 | 1004.7 |
| 20260506043537 | 11 | 57 | 1.6 | 8.0 | 0.00 | 1.19 | 1.19 | 91 | 1004.7 |
| 20260506043051 | 10 | 90 | 0.0 | 6.4 | 0.00 | 1.19 | 1.19 | 91 | 1004.7 |
| 20260506042507 | 10 | 56 | 1.6 | 6.4 | 0.00 | 1.19 | 1.19 | 91 | 1004.7 |
| 20260506042032 | 10 | 88 | 0.0 | 6.4 | 0.00 | 1.19 | 1.19 | 91 | 1004.7 |
| 20260506041554 | 11 | 124 | 1.6 | 4.8 | 0.00 | 1.19 | 1.19 | 91 | 1004.8 |
| 20260506041007 | 11 | 115 | 0.0 | 4.8 | 0.00 | 1.19 | 1.19 | 91 | 1004.8 |
| 20260506040525 | 11 | 62 | 0.0 | 3.2 | 0.00 | 1.19 | 1.19 | 91 | 1004.9 |
| 20260506040043 | 11 | 132 | 0.0 | 3.2 | 0.00 | 1.19 | 1.19 | 91 | 1004.9 |